Time,TemperatureF,DewpointF,PressureIn,WindDirection,WindDirectionDegrees,WindSpeedMPH,WindSpeedGustMPH,Humidity,HourlyPrecipIn,Conditions,Clouds,dailyrainin,SoftwareType,DateUTC
2013-02-24 00:10:00,39.4,38.0,29.81,WNW,300,0.0,0.0,95,0.00,,,0.00,weatherlink.com 1.10,2013-02-24 05:10:00,
2013-02-24 00:25:00,39.4,38.0,29.81,WNW,300,0.0,0.0,95,0.00,,,0.00,weatherlink.com 1.10,2013-02-24 05:25:00,
2013-02-24 00:40:00,39.5,38.0,29.81,WNW,301,0.0,0.0,95,0.00,,,0.00,weatherlink.com 1.10,2013-02-24 05:40:00,
2013-02-24 00:55:00,39.4,38.0,29.81,WNW,301,0.0,0.0,95,0.00,,,0.00,weatherlink.com 1.10,2013-02-24 05:55:00,
2013-02-24 01:10:00,39.4,38.0,29.81,WNW,301,0.0,0.0,95,0.00,,,0.00,weatherlink.com 1.10,2013-02-24 06:10:00,
2013-02-24 01:25:00,39.4,38.0,29.82,WNW,301,0.0,0.0,95,0.00,,,0.00,weatherlink.com 1.10,2013-02-24 06:25:00,
2013-02-24 01:40:00,39.6,38.0,29.83,WNW,301,0.0,0.0,95,0.00,,,0.00,weatherlink.com 1.10,2013-02-24 06:40:00,
2013-02-24 01:55:00,39.5,38.0,29.82,WNW,301,0.0,0.0,95,0.00,,,0.00,weatherlink.com 1.10,2013-02-24 06:55:00,
2013-02-24 02:10:00,39.4,38.0,29.83,WNW,301,0.0,0.0,95,0.00,,,0.00,weatherlink.com 1.10,2013-02-24 07:10:00,
2013-02-24 02:25:00,39.2,38.0,29.82,WNW,300,0.0,0.0,95,0.00,,,0.00,weatherlink.com 1.10,2013-02-24 07:25:00,
2013-02-24 02:40:00,39.1,38.0,29.81,WNW,300,0.0,0.0,95,0.00,,,0.00,weatherlink.com 1.10,2013-02-24 07:40:00,
2013-02-24 02:55:00,39.1,38.0,29.80,WNW,300,0.0,0.0,95,0.00,,,0.00,weatherlink.com 1.10,2013-02-24 07:55:00,
2013-02-24 03:10:00,39.1,38.0,29.79,WNW,300,0.0,0.0,96,0.00,,,0.00,weatherlink.com 1.10,2013-02-24 08:10:00,
2013-02-24 03:25:00,39.1,38.0,29.79,WNW,300,0.0,0.0,96,0.00,,,0.00,weatherlink.com 1.10,2013-02-24 08:25:00,
2013-02-24 03:40:00,39.1,38.0,29.77,WNW,301,0.0,0.0,96,0.00,,,0.00,weatherlink.com 1.10,2013-02-24 08:40:00,
2013-02-24 03:55:00,39.0,38.0,29.78,WNW,300,0.0,0.0,96,0.00,,,0.00,weatherlink.com 1.10,2013-02-24 08:55:00,
2013-02-24 04:10:00,39.1,38.0,29.78,WNW,301,0.0,0.0,96,0.00,,,0.00,weatherlink.com 1.10,2013-02-24 09:10:00,
2013-02-24 04:25:00,39.2,38.0,29.78,WNW,301,0.0,0.0,96,0.00,,,0.00,weatherlink.com 1.10,2013-02-24 09:25:00,
2013-02-24 04:40:00,38.9,38.0,29.80,WNW,301,0.0,1.0,96,0.00,,,0.00,weatherlink.com 1.10,2013-02-24 09:40:00,
2013-02-24 04:55:00,38.5,38.0,29.80,WNW,301,0.0,0.0,96,0.00,,,0.00,weatherlink.com 1.10,2013-02-24 09:55:00,
2013-02-24 05:10:00,38.3,37.0,29.81,WNW,301,0.0,3.0,96,0.00,,,0.00,weatherlink.com 1.10,2013-02-24 10:10:00,
2013-02-24 05:25:00,38.5,38.0,29.82,WNW,300,0.0,1.0,96,0.00,,,0.00,weatherlink.com 1.10,2013-02-24 10:25:00,
2013-02-24 05:40:00,38.2,37.0,29.81,WNW,300,0.0,0.0,96,0.00,,,0.00,weatherlink.com 1.10,2013-02-24 10:40:00,
2013-02-24 05:55:00,37.9,37.0,29.82,WNW,301,0.0,0.0,96,0.00,,,0.00,weatherlink.com 1.10,2013-02-24 10:55:00,
2013-02-24 06:10:00,37.7,37.0,29.82,WNW,301,0.0,1.0,96,0.00,,,0.00,weatherlink.com 1.10,2013-02-24 11:10:00,
2013-02-24 06:25:00,37.5,37.0,29.81,WNW,300,0.0,0.0,96,0.00,,,0.00,weatherlink.com 1.10,2013-02-24 11:25:00,
2013-02-24 06:41:00,36.8,36.0,29.81,WNW,301,0.0,1.0,95,0.00,,,0.00,weatherlink.com 1.10,2013-02-24 11:41:00,
2013-02-24 06:55:00,36.5,36.0,29.82,WNW,300,0.0,0.0,96,0.00,,,0.00,weatherlink.com 1.10,2013-02-24 11:55:00,
2013-02-24 07:10:00,36.1,35.0,29.82,WNW,301,0.0,1.0,96,0.00,,,0.00,weatherlink.com 1.10,2013-02-24 12:10:00,
2013-02-24 07:25:00,35.6,35.0,29.82,WNW,301,0.0,0.0,96,0.00,,,0.00,weatherlink.com 1.10,2013-02-24 12:25:00,
2013-02-24 07:40:00,35.7,35.0,29.83,WNW,301,0.0,2.0,96,0.00,,,0.00,weatherlink.com 1.10,2013-02-24 12:40:00,
2013-02-24 07:56:00,36.9,36.0,29.83,WNW,301,0.0,1.0,96,0.00,,,0.00,weatherlink.com 1.10,2013-02-24 12:56:00,
2013-02-24 08:11:00,38.7,38.0,29.83,WNW,301,0.0,0.0,97,0.00,,,0.00,weatherlink.com 1.10,2013-02-24 13:11:00,
2013-02-24 08:26:00,40.1,39.0,29.83,WNW,301,0.0,0.0,97,0.00,,,0.00,weatherlink.com 1.10,2013-02-24 13:26:00,
2013-02-24 08:41:00,42.0,38.0,29.84,NW,317,2.0,11.0,85,0.00,,,0.00,weatherlink.com 1.10,2013-02-24 13:41:00,
2013-02-24 08:56:00,44.5,38.0,29.85,WNW,296,0.0,8.0,78,0.00,,,0.00,weatherlink.com 1.10,2013-02-24 13:56:00,
2013-02-24 09:11:00,46.0,38.0,29.85,WNW,302,0.0,3.0,74,0.00,,,0.00,weatherlink.com 1.10,2013-02-24 14:11:00,
2013-02-24 09:26:00,46.0,36.0,29.86,NW,304,3.0,8.0,67,0.00,,,0.00,weatherlink.com 1.10,2013-02-24 14:26:00,
2013-02-24 09:41:00,45.2,34.0,29.87,NW,306,0.0,11.0,64,0.00,,,0.00,weatherlink.com 1.10,2013-02-24 14:41:00,
2013-02-24 09:56:00,45.8,33.0,29.87,NW,310,0.0,7.0,61,0.00,,,0.00,weatherlink.com 1.10,2013-02-24 14:56:00,
2013-02-24 10:11:00,45.8,32.0,29.88,WNW,294,4.0,11.0,59,0.00,,,0.00,weatherlink.com 1.10,2013-02-24 15:11:00,
2013-02-24 10:26:00,45.0,31.0,29.88,NW,311,5.0,12.0,58,0.00,,,0.00,weatherlink.com 1.10,2013-02-24 15:26:00,
2013-02-24 10:41:00,44.5,31.0,29.88,WNW,303,5.0,13.0,60,0.00,,,0.00,weatherlink.com 1.10,2013-02-24 15:41:00,
2013-02-24 10:56:00,46.0,32.0,29.89,WNW,284,5.0,8.0,59,0.00,,,0.00,weatherlink.com 1.10,2013-02-24 15:56:00,
2013-02-24 11:11:00,45.1,31.0,29.89,WNW,302,5.0,13.0,58,0.00,,,0.00,weatherlink.com 1.10,2013-02-24 16:11:00,
2013-02-24 11:26:00,45.5,30.0,29.88,WNW,296,6.0,11.0,56,0.00,,,0.00,weatherlink.com 1.10,2013-02-24 16:26:00,
2013-02-24 11:41:00,45.0,30.0,29.89,West,281,7.0,13.0,57,0.00,,,0.00,weatherlink.com 1.10,2013-02-24 16:41:00,
2013-02-24 11:56:00,46.4,31.0,29.89,NNW,330,1.0,7.0,55,0.00,,,0.00,weatherlink.com 1.10,2013-02-24 16:56:00,
2013-02-24 12:11:00,46.4,31.0,29.87,WNW,300,6.0,11.0,56,0.00,,,0.00,weatherlink.com 1.10,2013-02-24 17:11:00,
2013-02-24 12:26:00,46.5,30.0,29.87,WNW,284,2.0,9.0,54,0.00,,,0.00,weatherlink.com 1.10,2013-02-24 17:26:00,
2013-02-24 12:41:00,47.3,30.0,29.87,NNW,331,6.0,17.0,52,0.00,,,0.00,weatherlink.com 1.10,2013-02-24 17:41:00,
2013-02-24 12:56:00,47.3,30.0,29.86,NW,309,10.0,12.0,51,0.00,,,0.00,weatherlink.com 1.10,2013-02-24 17:56:00,
2013-02-24 13:11:00,48.1,31.0,29.86,West,280,1.0,10.0,51,0.00,,,0.00,weatherlink.com 1.10,2013-02-24 18:11:00,
2013-02-24 13:26:00,47.2,29.0,29.86,WNW,299,4.0,12.0,50,0.00,,,0.00,weatherlink.com 1.10,2013-02-24 18:26:00,
2013-02-24 13:41:00,46.4,30.0,29.86,WNW,296,0.0,11.0,53,0.00,,,0.00,weatherlink.com 1.10,2013-02-24 18:41:00,
2013-02-24 13:56:00,47.1,30.0,29.86,NW,309,3.0,9.0,51,0.00,,,0.00,weatherlink.com 1.10,2013-02-24 18:56:00,
2013-02-24 14:11:00,46.6,30.0,29.87,NW,309,0.0,3.0,53,0.00,,,0.00,weatherlink.com 1.10,2013-02-24 19:11:00,
2013-02-24 14:26:00,46.1,30.0,29.87,NW,306,0.0,5.0,54,0.00,,,0.00,weatherlink.com 1.10,2013-02-24 19:26:00,
2013-02-24 14:41:00,46.4,30.0,29.87,North,10,0.0,10.0,53,0.00,,,0.00,weatherlink.com 1.10,2013-02-24 19:41:00,
2013-02-24 14:56:00,47.2,29.0,29.88,SE,137,1.0,3.0,50,0.00,,,0.00,weatherlink.com 1.10,2013-02-24 19:56:00,
2013-02-24 15:11:00,45.9,29.0,29.89,WNW,298,0.0,8.0,53,0.00,,,0.00,weatherlink.com 1.10,2013-02-24 20:11:00,
2013-02-24 15:26:00,44.8,29.0,29.91,NW,304,2.0,10.0,55,0.00,,,0.00,weatherlink.com 1.10,2013-02-24 20:26:00,
2013-02-24 15:41:00,42.7,28.0,29.92,NW,325,4.0,14.0,57,0.00,,,0.00,weatherlink.com 1.10,2013-02-24 20:41:00,
2013-02-24 15:56:00,41.2,28.0,29.93,ESE,105,3.0,9.0,59,0.00,,,0.00,weatherlink.com 1.10,2013-02-24 20:56:00,
2013-02-24 16:11:00,40.5,27.0,29.94,WNW,303,1.0,7.0,60,0.00,,,0.00,weatherlink.com 1.10,2013-02-24 21:11:00,
2013-02-24 16:26:00,40.1,28.0,29.94,NW,309,0.0,8.0,62,0.00,,,0.00,weatherlink.com 1.10,2013-02-24 21:26:00,
2013-02-24 16:42:00,39.8,28.0,29.95,WNW,291,1.0,8.0,62,0.00,,,0.00,weatherlink.com 1.10,2013-02-24 21:42:00,
2013-02-24 16:57:00,38.7,27.0,29.97,WNW,288,3.0,11.0,64,0.00,,,0.00,weatherlink.com 1.10,2013-02-24 21:57:00,
2013-02-24 17:12:00,38.0,27.0,29.98,NW,304,4.0,11.0,64,0.00,,,0.00,weatherlink.com 1.10,2013-02-24 22:12:00,
2013-02-24 17:27:00,37.5,27.0,29.99,NW,307,3.0,9.0,65,0.00,,,0.00,weatherlink.com 1.10,2013-02-24 22:27:00,
2013-02-24 17:42:00,37.0,27.0,29.99,WNW,301,3.0,9.0,67,0.00,,,0.00,weatherlink.com 1.10,2013-02-24 22:42:00,
2013-02-24 17:57:00,36.6,25.0,29.99,WNW,294,3.0,16.0,64,0.00,,,0.00,weatherlink.com 1.10,2013-02-24 22:57:00,
2013-02-24 18:12:00,36.4,25.0,30.01,North,360,0.0,8.0,63,0.00,,,0.00,weatherlink.com 1.10,2013-02-24 23:12:00,
2013-02-24 18:27:00,35.9,24.0,30.01,WNW,293,4.0,10.0,63,0.00,,,0.00,weatherlink.com 1.10,2013-02-24 23:27:00,
2013-02-24 18:42:00,35.4,24.0,30.03,NW,317,7.0,10.0,63,0.00,,,0.00,weatherlink.com 1.10,2013-02-24 23:42:00,
2013-02-24 18:57:00,35.2,24.0,30.03,NW,304,4.0,11.0,65,0.00,,,0.00,weatherlink.com 1.10,2013-02-24 23:57:00,
2013-02-24 19:12:00,34.7,24.0,30.05,NW,315,0.0,5.0,66,0.00,,,0.00,weatherlink.com 1.10,2013-02-25 00:12:00,
2013-02-24 19:27:00,34.4,24.0,30.05,WNW,300,2.0,4.0,66,0.00,,,0.00,weatherlink.com 1.10,2013-02-25 00:27:00,
2013-02-24 19:42:00,34.4,24.0,30.07,WNW,288,0.0,4.0,65,0.00,,,0.00,weatherlink.com 1.10,2013-02-25 00:42:00,
2013-02-24 19:57:00,34.2,23.0,30.06,WNW,299,2.0,11.0,64,0.00,,,0.00,weatherlink.com 1.10,2013-02-25 00:57:00,
2013-02-24 20:12:00,34.1,23.0,30.08,NW,310,0.0,7.0,64,0.00,,,0.00,weatherlink.com 1.10,2013-02-25 01:12:00,
2013-02-24 20:27:00,33.7,23.0,30.07,NW,309,2.0,7.0,64,0.00,,,0.00,weatherlink.com 1.10,2013-02-25 01:27:00,
2013-02-24 20:42:00,33.5,22.0,30.07,WNW,300,5.0,7.0,64,0.00,,,0.00,weatherlink.com 1.10,2013-02-25 01:42:00,
2013-02-24 20:57:00,33.5,22.0,30.08,West,276,0.0,6.0,64,0.00,,,0.00,weatherlink.com 1.10,2013-02-25 01:57:00,
2013-02-24 21:12:00,33.1,22.0,30.07,WNW,287,1.0,4.0,65,0.00,,,0.00,weatherlink.com 1.10,2013-02-25 02:12:00,
2013-02-24 21:27:00,33.0,23.0,30.08,WNW,296,0.0,4.0,66,0.00,,,0.00,weatherlink.com 1.10,2013-02-25 02:27:00,
2013-02-24 21:42:00,32.4,23.0,30.09,WNW,296,0.0,3.0,67,0.00,,,0.00,weatherlink.com 1.10,2013-02-25 02:42:00,
2013-02-24 21:57:00,32.5,23.0,30.08,NW,307,0.0,8.0,67,0.00,,,0.00,weatherlink.com 1.10,2013-02-25 02:57:00,
2013-02-24 22:12:00,32.3,22.0,30.09,WNW,302,1.0,5.0,67,0.00,,,0.00,weatherlink.com 1.10,2013-02-25 03:12:00,
2013-02-24 22:27:00,31.9,22.0,30.09,WNW,300,0.0,2.0,68,0.00,,,0.00,weatherlink.com 1.10,2013-02-25 03:27:00,
2013-02-24 22:42:00,31.3,22.0,30.08,WNW,301,0.0,2.0,69,0.00,,,0.00,weatherlink.com 1.10,2013-02-25 03:42:00,
2013-02-24 22:57:00,30.9,22.0,30.09,WNW,301,0.0,3.0,70,0.00,,,0.00,weatherlink.com 1.10,2013-02-25 03:57:00,
2013-02-24 23:12:00,30.9,22.0,30.09,WNW,300,0.0,1.0,69,0.00,,,0.00,weatherlink.com 1.10,2013-02-25 04:12:00,
2013-02-24 23:27:00,30.8,22.0,30.09,WNW,298,0.0,3.0,69,0.00,,,0.00,weatherlink.com 1.10,2013-02-25 04:27:00,
2013-02-24 23:43:00,30.6,22.0,30.10,WNW,298,0.0,1.0,69,0.00,,,0.00,weatherlink.com 1.10,2013-02-25 04:43:00,
2013-02-24 23:57:00,30.4,21.0,30.09,WNW,298,0.0,2.0,69,0.00,,,0.00,weatherlink.com 1.10,2013-02-25 04:57:00,